Weather History for Three Rivers, MI

Change the Weather History Date:

Sunday, July 21, 2013

  Actual Average Record
Temperature  
Mean Temperature 74 °F -  
Max Temperature 84 °F 84 °F 99 °F (1983)
Min Temperature 63 °F 60 °F 44 °F (1970)
Cooling Degree Days 8    
Growing Degree Days 24 (Base 50)    
Moisture  
Dew Point 63 °F    
Average Humidity 71    
Maximum Humidity 89    
Minimum Humidity 49    
Precipitation  
Precipitation 0.00 in - - ()
Sea Level Pressure  
Sea Level Pressure 29.96 in    
Wind  
Wind Speed 2 mph (East)    
Max Wind Speed 16 mph    
Max Gust Speed 22 mph    
Visibility 10 miles    
Events Rain    
Averages and records for this station are not official NWS values.
T = Trace of Precipitation, MM = Missing Value Source: NWS Daily Summary

Daily Weather History Graph

Daily Weather History Graph

Search for Another Location

Airport:

Trip Planner

Search our weather history database for the weather conditions in past years. The results will help you decide how hot, cold, wet, or windy it might be!

Date:

Astronomy

Jul. 21, 2013 Rise Set
Actual Time 6:25 AM EDT 9:11 PM EDT
Civil Twilight 5:52 AM EDT 9:44 PM EDT
Nautical Twilight 5:11 AM EDT 10:25 PM EDT
Astronomical Twilight 4:24 AM EDT 11:11 PM EDT
Moon 8:08 PM EDT (7/21) 5:10 AM EDT (7/21)
Length of Visible Light 15h 51m
Length of Day
14h 45m
Waxing Gibbous, 98% of the Moon is Illuminated
Jul 21
Waxing Gibbous
Jul 22
Full
Jul 29
Last Quarter
Aug 6
New
Aug 14
First Quarter

Hourly Weather History & Observations

Time (EDT) Temp. Heat Index Dew Point Humidity Pressure Visibility Wind Dir Wind Speed Gust Speed Precip Events Conditions
12:14 AM 66.6 °F - 62.1 °F 85% 29.95 in 10.0 mi Calm Calm - N/A   Clear
12:34 AM 66.4 °F - 61.9 °F 85% 29.95 in 10.0 mi Calm Calm - N/A   Clear
12:54 AM 67.1 °F - 62.1 °F 84% 29.95 in 10.0 mi Calm Calm - N/A   Clear
1:14 AM 65.7 °F - 61.9 °F 88% 29.95 in 10.0 mi Calm Calm - N/A   Clear
1:34 AM 66.9 °F - 63.3 °F 88% 29.95 in 10.0 mi Calm Calm - N/A   Clear
1:54 AM 66.9 °F - 63.5 °F 89% 29.95 in 10.0 mi Calm Calm - N/A   Clear
2:14 AM 68.2 °F - 63.0 °F 83% 29.95 in 10.0 mi Calm Calm - N/A   Clear
2:34 AM 68.0 °F - 63.0 °F 84% 29.95 in 10.0 mi Calm Calm - N/A   Clear
2:53 AM 68.0 °F - 61.7 °F 80% 29.95 in 10.0 mi NNE 4.6 mph - N/A   Clear
3:14 AM 67.8 °F - 60.8 °F 78% 29.96 in 10.0 mi Calm Calm - N/A   Scattered Clouds
3:33 AM 67.6 °F - 60.6 °F 78% 29.96 in 10.0 mi NNE 3.5 mph - N/A   Mostly Cloudy
3:54 AM 67.5 °F - 60.3 °F 78% 29.96 in 10.0 mi NE 4.6 mph - N/A   Overcast
4:14 AM 66.9 °F - 59.9 °F 78% 29.96 in 10.0 mi ENE 3.5 mph - N/A   Mostly Cloudy
4:34 AM 66.4 °F - 60.6 °F 82% 29.96 in 10.0 mi Calm Calm - N/A   Scattered Clouds
4:54 AM 66.4 °F - 60.6 °F 82% 29.96 in 10.0 mi Calm Calm - N/A   Scattered Clouds
5:13 AM 65.8 °F - 60.3 °F 82% 29.97 in 10.0 mi NNE 3.5 mph - N/A   Mostly Cloudy
5:34 AM 64.8 °F - 60.1 °F 85% 29.96 in 10.0 mi Calm Calm - N/A   Scattered Clouds
5:54 AM 64.6 °F - 59.0 °F 82% 29.97 in 10.0 mi NE 4.6 mph - N/A   Scattered Clouds
6:13 AM 64.0 °F - 58.1 °F 81% 29.97 in 10.0 mi NE 4.6 mph - N/A   Scattered Clouds
6:34 AM 63.5 °F - 58.3 °F 83% 29.97 in 10.0 mi Calm Calm - N/A   Clear
6:54 AM 63.1 °F - 58.6 °F 85% 29.98 in 10.0 mi NE 3.5 mph - N/A   Clear
7:14 AM 63.5 °F - 58.5 °F 84% 29.98 in 10.0 mi Calm Calm - N/A   Scattered Clouds
7:34 AM 63.9 °F - 59.0 °F 84% 29.99 in 10.0 mi ENE 4.6 mph - N/A   Scattered Clouds
7:54 AM 64.2 °F - 59.4 °F 84% 30.00 in 10.0 mi Calm Calm - N/A   Mostly Cloudy
8:14 AM 65.3 °F - 60.1 °F 83% 30.01 in 10.0 mi ENE 3.5 mph - N/A   Mostly Cloudy
8:34 AM 66.7 °F - 60.8 °F 81% 30.01 in 10.0 mi ENE 3.5 mph - N/A   Scattered Clouds
8:54 AM 68.0 °F - 61.7 °F 80% 30.00 in 10.0 mi NE 4.6 mph - N/A   Clear
9:14 AM 69.4 °F - 62.2 °F 78% 30.01 in 10.0 mi East 5.8 mph - N/A   Clear
9:34 AM 70.0 °F - 62.4 °F 77% 30.01 in 10.0 mi East 3.5 mph - N/A   Clear
9:53 AM 71.6 °F - 62.8 °F 74% 30.00 in 10.0 mi East 5.8 mph - N/A   Clear
10:14 AM 72.7 °F - 63.7 °F 73% 30.01 in 10.0 mi East 4.6 mph - N/A   Clear
10:34 AM 73.8 °F - 64.2 °F 72% 30.01 in 10.0 mi SE 3.5 mph - N/A   Clear
10:54 AM 74.7 °F - 64.4 °F 70% 30.01 in 10.0 mi Calm Calm - N/A   Clear
11:14 AM 76.3 °F - 65.1 °F 68% 30.01 in 10.0 mi ESE 4.6 mph - N/A   Clear
11:34 AM 77.2 °F - 65.1 °F 66% 30.01 in 10.0 mi East 3.5 mph - N/A   Clear
11:54 AM 78.1 °F - 65.3 °F 65% 30.01 in 10.0 mi SE 3.5 mph - N/A   Clear
12:14 PM 78.8 °F - 65.3 °F 63% 30.01 in 10.0 mi SSE 3.5 mph - N/A   Scattered Clouds
12:34 PM 78.4 °F - 64.8 °F 63% 30.00 in 10.0 mi ESE 3.5 mph - N/A   Scattered Clouds
12:54 PM 79.2 °F - 64.8 °F 61% 29.99 in 10.0 mi SSE 3.5 mph - N/A   Clear
1:14 PM 79.7 °F - 64.8 °F 60% 29.99 in 10.0 mi South 3.5 mph - N/A   Clear
1:34 PM 81.1 °F 82.8 °F 64.8 °F 57% 29.99 in 10.0 mi Calm Calm - N/A   Clear
1:54 PM 81.1 °F 82.8 °F 64.4 °F 57% 29.99 in 10.0 mi Calm Calm - N/A   Scattered Clouds
2:14 PM 80.6 °F 82.2 °F 64.0 °F 57% 29.99 in 10.0 mi Calm Calm - N/A   Scattered Clouds
2:34 PM 80.2 °F 82.1 °F 65.1 °F 60% 29.99 in 10.0 mi Calm Calm - N/A   Mostly Cloudy
2:54 PM 81.0 °F 82.5 °F 63.7 °F 56% 29.98 in 10.0 mi SE 3.5 mph - N/A   Overcast
3:13 PM 81.3 °F 82.9 °F 64.4 °F 56% 29.97 in 10.0 mi Calm Calm - N/A   Mostly Cloudy
3:34 PM 81.7 °F 83.0 °F 63.7 °F 54% 29.96 in 10.0 mi East 3.5 mph - N/A   Overcast
3:54 PM 80.4 °F 81.7 °F 63.0 °F 55% 29.96 in 10.0 mi East 4.6 mph - N/A   Mostly Cloudy
4:13 PM 81.1 °F 82.8 °F 64.6 °F 57% 29.95 in 10.0 mi ENE 4.6 mph - N/A   Scattered Clouds
4:34 PM 81.5 °F 83.1 °F 64.4 °F 56% 29.94 in 10.0 mi East 3.5 mph - N/A   Scattered Clouds
4:54 PM 82.9 °F 84.2 °F 63.7 °F 52% 29.94 in 10.0 mi ESE 5.8 mph - N/A   Clear
5:14 PM 84.0 °F 85.4 °F 64.2 °F 51% 29.92 in 10.0 mi SE 5.8 mph - N/A   Clear
5:34 PM 84.2 °F 85.2 °F 63.3 °F 49% 29.92 in 10.0 mi ESE 4.6 mph - N/A   Clear
5:54 PM 83.8 °F 84.9 °F 63.3 °F 50% 29.92 in 10.0 mi SE 4.6 mph - N/A   Clear
6:14 PM 83.8 °F 84.9 °F 63.1 °F 50% 29.91 in 10.0 mi ESE 4.6 mph - N/A   Clear
6:34 PM 83.5 °F 84.5 °F 63.0 °F 50% 29.91 in 10.0 mi SE 5.8 mph - N/A   Clear
6:54 PM 83.3 °F 84.3 °F 62.6 °F 50% 29.91 in 10.0 mi East 4.6 mph - N/A   Clear
7:14 PM 82.6 °F 83.9 °F 63.7 °F 53% 29.90 in 10.0 mi ESE 5.8 mph - N/A   Clear
7:34 PM 81.5 °F 82.8 °F 63.5 °F 54% 29.91 in 10.0 mi ESE 3.5 mph - N/A   Clear
7:54 PM 80.4 °F 82.1 °F 64.2 °F 58% 29.91 in 10.0 mi ESE 3.5 mph - N/A   Clear
8:14 PM 79.7 °F - 64.4 °F 59% 29.91 in 10.0 mi East 9.2 mph - N/A   Scattered Clouds
8:34 PM 78.4 °F - 66.0 °F 66% 29.92 in 10.0 mi ESE 3.5 mph - N/A Rain Light Rain
8:53 PM 76.5 °F - 67.1 °F 73% 29.92 in 10.0 mi East 4.6 mph - N/A Rain Light Rain
9:14 PM 74.8 °F - 68.0 °F 79% 29.92 in 10.0 mi East 3.5 mph - N/A   Mostly Cloudy
9:34 PM 74.8 °F - 68.0 °F 79% 29.92 in 10.0 mi East 4.6 mph - N/A   Scattered Clouds
9:54 PM 73.4 °F - 68.4 °F 84% 29.93 in 10.0 mi North 3.5 mph - N/A   Scattered Clouds
10:14 PM 73.6 °F - 68.5 °F 84% 29.93 in 10.0 mi Calm Calm - N/A   Mostly Cloudy
10:34 PM 74.3 °F - 68.0 °F 81% 29.94 in 10.0 mi Calm Calm - N/A   Mostly Cloudy
10:54 PM 73.8 °F - 68.0 °F 82% 29.94 in 10.0 mi Calm Calm - N/A   Mostly Cloudy
11:14 PM 73.6 °F - 68.4 °F 84% 29.93 in 10.0 mi Calm Calm - N/A   Mostly Cloudy
11:34 PM 73.2 °F - 68.5 °F 85% 29.95 in 10.0 mi WNW 16.1 mph 20.7 mph N/A   Mostly Cloudy
11:54 PM 68.9 °F - 63.7 °F 83% 29.96 in 10.0 mi North 5.8 mph 21.9 mph N/A   Overcast